RED82 YMML-YWSL

Flight info

Callsign RED82
Flight time 0h 33m
Altitude 10000
Route YMML RWY27 CORRS1 CORRS DCT YWSL VIA WSLWB RWY09
Aircraft TBM9/L-SDG/L

Departure

Time 2026-04-17 11:32
Airport Melbourne Airport (YMML)

Arrival

Time 2026-04-17 12:06
Airport West Sale Airport (YWSL)
Time Latitude Longitude Altitude Speed Heading
2026-04-17 11:10 -37.66634 144.84896 330 ft 0 kts 168°
2026-04-17 11:27 -37.66639 144.84895 331 ft 5 kts 213°
2026-04-17 11:28 -37.66596 144.84917 331 ft 14 kts 51°
2026-04-17 11:28 -37.66582 144.85060 330 ft 20 kts 102°
2026-04-17 11:28 -37.66570 144.85176 329 ft 7 kts 339°
2026-04-17 11:28 -37.66573 144.85138 328 ft 17 kts 279°
2026-04-17 11:29 -37.66508 144.85041 328 ft 18 kts 358°
2026-04-17 11:29 -37.66386 144.84952 323 ft 23 kts 316°
2026-04-17 11:29 -37.66346 144.84913 326 ft 0 kts 312°
2026-04-17 11:30 -37.66345 144.84911 323 ft 0 kts 313°
2026-04-17 11:31 -37.66304 144.84865 325 ft 21 kts 318°
2026-04-17 11:31 -37.66229 144.84733 326 ft 16 kts 293°
2026-04-17 11:31 -37.66221 144.84698 332 ft 1 kts 276°
2026-04-17 11:31 -37.66221 144.84692 332 ft 8 kts 274°
2026-04-17 11:32 -37.66204 144.84356 352 ft 66 kts 274°
2026-04-17 11:32 -37.66152 144.83531 463 ft 117 kts 277°
2026-04-17 11:32 -37.66030 144.82385 743 ft 142 kts 278°
2026-04-17 11:32 -37.65880 144.81128 1279 ft 143 kts 278°
2026-04-17 11:33 -37.65733 144.79931 1981 ft 134 kts 279°
2026-04-17 11:33 -37.65578 144.78773 2548 ft 136 kts 281°
2026-04-17 11:33 -37.65405 144.77559 3012 ft 144 kts 279°
2026-04-17 11:33 -37.65278 144.76282 3486 ft 151 kts 275°
2026-04-17 11:34 -37.65256 144.74898 3766 ft 169 kts 271°
2026-04-17 11:34 -37.65225 144.73343 4005 ft 179 kts 270°
2026-04-17 11:34 -37.65222 144.71734 4183 ft 189 kts 270°
2026-04-17 11:34 -37.65225 144.70089 4576 ft 181 kts 264°
2026-04-17 11:35 -37.65723 144.68745 5215 ft 168 kts 227°
2026-04-17 11:35 -37.66669 144.67923 5718 ft 164 kts 204°
2026-04-17 11:35 -37.67762 144.67640 6233 ft 163 kts 177°
2026-04-17 11:35 -37.68870 144.68008 6569 ft 171 kts 158°
2026-04-17 11:36 -37.69947 144.68640 7049 ft 167 kts 154°
2026-04-17 11:36 -37.70914 144.69359 7657 ft 158 kts 144°
2026-04-17 11:36 -37.71682 144.70371 8013 ft 168 kts 121°
2026-04-17 11:36 -37.72244 144.71745 8217 ft 181 kts 118°
2026-04-17 11:37 -37.72917 144.73051 8706 ft 175 kts 128°
2026-04-17 11:37 -37.73762 144.74123 9131 ft 175 kts 141°
2026-04-17 11:37 -37.74758 144.75002 9585 ft 171 kts 148°
2026-04-17 11:37 -37.75717 144.75808 10187 ft 162 kts 146°
2026-04-17 11:38 -37.76710 144.76632 10438 ft 180 kts 149°
2026-04-17 11:38 -37.77839 144.77444 10692 ft 193 kts 152°
2026-04-17 11:38 -37.79078 144.78303 10686 ft 215 kts 152°
2026-04-17 11:38 -37.80461 144.79227 10598 ft 231 kts 151°
2026-04-17 11:39 -37.81759 144.80433 10743 ft 232 kts 136°
2026-04-17 11:39 -37.82832 144.81929 11076 ft 225 kts 129°
2026-04-17 11:39 -37.83703 144.83540 11429 ft 221 kts 119°
2026-04-17 11:39 -37.84330 144.85335 11706 ft 227 kts 108°
2026-04-17 11:40 -37.84732 144.87263 12197 ft 225 kts 102°
2026-04-17 11:40 -37.85037 144.89211 12705 ft 224 kts 99°
2026-04-17 11:40 -37.85315 144.91233 12805 ft 242 kts 100°
2026-04-17 11:40 -37.85601 144.93312 13343 ft 233 kts 101°
2026-04-17 11:41 -37.85969 144.95432 13052 ft 258 kts 103°
2026-04-17 11:41 -37.86358 144.97680 12963 ft 264 kts 101°
2026-04-17 11:41 -37.86665 145.00010 12804 ft 269 kts 98°
2026-04-17 11:41 -37.86965 145.02322 12753 ft 269 kts 100°
2026-04-17 11:42 -37.87266 145.04568 13050 ft 258 kts 99°
2026-04-17 11:42 -37.87534 145.06848 12982 ft 263 kts 97°
2026-04-17 11:42 -37.87692 145.09165 12832 ft 270 kts 93°
2026-04-17 11:42 -37.87775 145.11476 13079 ft 258 kts 92°
2026-04-17 11:43 -37.87854 145.13786 13036 ft 262 kts 92°
2026-04-17 11:43 -37.87883 145.16074 13190 ft 258 kts 90°
2026-04-17 11:43 -37.87886 145.18369 12865 ft 272 kts 91°
2026-04-17 11:43 -37.87949 145.20868 12249 ft 286 kts 92°
2026-04-17 11:44 -37.88030 145.23257 12745 ft 261 kts 92°
2026-04-17 11:44 -37.88085 145.25494 12986 ft 255 kts 91°
2026-04-17 11:44 -37.88120 145.27775 12935 ft 260 kts 90°
2026-04-17 11:44 -37.88157 145.30107 12783 ft 267 kts 92°
2026-04-17 11:45 -37.88214 145.32455 12784 ft 265 kts 91°
2026-04-17 11:45 -37.88262 145.34728 13069 ft 259 kts 92°
2026-04-17 11:45 -37.88313 145.37030 13012 ft 266 kts 91°
2026-04-17 11:45 -37.88371 145.39374 13086 ft 266 kts 91°
2026-04-17 11:46 -37.88406 145.41736 12983 ft 272 kts 91°
2026-04-17 11:46 -37.88433 145.44129 12953 ft 273 kts 92°
2026-04-17 11:46 -37.88588 145.46516 12976 ft 272 kts 98°
2026-04-17 11:46 -37.88910 145.48884 12952 ft 272 kts 101°
2026-04-17 11:47 -37.89285 145.51236 12907 ft 273 kts 102°
2026-04-17 11:47 -37.89670 145.53543 13107 ft 266 kts 102°
2026-04-17 11:47 -37.90031 145.55863 13120 ft 267 kts 101°
2026-04-17 11:47 -37.90431 145.58215 12961 ft 272 kts 103°
2026-04-17 11:48 -37.90917 145.60501 13023 ft 271 kts 108°
2026-04-17 11:48 -37.91530 145.62820 12817 ft 276 kts 109°
2026-04-17 11:48 -37.92136 145.65057 13052 ft 268 kts 109°
2026-04-17 11:48 -37.92778 145.67269 12954 ft 274 kts 110°
2026-04-17 11:49 -37.93440 145.69523 12969 ft 272 kts 111°
2026-04-17 11:49 -37.94127 145.71746 13075 ft 268 kts 112°
2026-04-17 11:49 -37.94835 145.73895 12935 ft 275 kts 112°
2026-04-17 11:49 -37.95583 145.76108 12926 ft 274 kts 114°
2026-04-17 11:50 -37.96379 145.78330 12751 ft 278 kts 114°
2026-04-17 11:50 -37.97092 145.80598 12837 ft 272 kts 110°
2026-04-17 11:50 -37.97732 145.82885 12707 ft 276 kts 109°
2026-04-17 11:50 -37.98303 145.85180 12620 ft 278 kts 107°
2026-04-17 11:51 -37.98880 145.87520 12684 ft 272 kts 108°
2026-04-17 11:51 -37.99430 145.89740 12886 ft 267 kts 106°
2026-04-17 11:51 -37.99757 145.91953 13526 ft 241 kts 96°
2026-04-17 11:51 -38.00008 145.94095 13345 ft 261 kts 100°
2026-04-17 11:52 -38.00295 145.96443 12999 ft 276 kts 98°
2026-04-17 11:52 -38.00565 145.98847 12299 ft 278 kts 98°
2026-04-17 11:52 -38.00811 146.01292 11644 ft 282 kts 96°
2026-04-17 11:52 -38.00948 146.03778 11023 ft 281 kts 92°
2026-04-17 11:53 -38.00946 146.06272 10268 ft 283 kts 88°
2026-04-17 11:53 -38.00796 146.08605 9784 ft 249 kts 84°
2026-04-17 11:53 -38.00605 146.10752 9850 ft 244 kts 82°
2026-04-17 11:53 -38.00364 146.12863 9980 ft 242 kts 81°
2026-04-17 11:54 -38.00130 146.14957 10159 ft 239 kts 82°
2026-04-17 11:54 -37.99911 146.17094 9752 ft 258 kts 83°
2026-04-17 11:54 -37.99717 146.19352 9854 ft 251 kts 84°
2026-04-17 11:54 -37.99573 146.21568 9759 ft 254 kts 85°
2026-04-17 11:55 -37.99420 146.23798 9748 ft 253 kts 85°
2026-04-17 11:55 -37.99328 146.26027 9761 ft 251 kts 88°
2026-04-17 11:55 -37.99314 146.28226 9825 ft 250 kts 91°
2026-04-17 11:55 -37.99344 146.30417 9908 ft 247 kts 90°
2026-04-17 11:56 -37.99335 146.32552 10186 ft 239 kts 89°
2026-04-17 11:56 -37.99334 146.34741 9392 ft 250 kts 90°
2026-04-17 11:56 -37.99370 146.36902 8774 ft 243 kts 92°
2026-04-17 11:56 -37.99442 146.39015 7904 ft 234 kts 94°
2026-04-17 11:57 -37.99659 146.40977 7149 ft 218 kts 107°
2026-04-17 11:57 -38.00093 146.42706 6891 ft 187 kts 110°
2026-04-17 11:57 -38.00580 146.44113 6786 ft 168 kts 117°
2026-04-17 11:57 -38.01148 146.45409 6474 ft 168 kts 121°
2026-04-17 11:58 -38.01647 146.46520 6900 ft 154 kts 120°
2026-04-17 11:58 -38.02300 146.47902 6767 ft 198 kts 122°
2026-04-17 11:58 -38.03044 146.49434 7016 ft 209 kts 121°
2026-04-17 11:58 -38.03798 146.51040 7351 ft 213 kts 120°
2026-04-17 11:59 -38.04366 146.52784 7662 ft 218 kts 105°
2026-04-17 11:59 -38.04653 146.54697 7909 ft 220 kts 98°
2026-04-17 11:59 -38.04838 146.56616 8053 ft 219 kts 94°
2026-04-17 11:59 -38.04884 146.58555 8089 ft 223 kts 91°
2026-04-17 12:00 -38.04888 146.60531 8097 ft 226 kts 89°
2026-04-17 12:00 -38.04798 146.62557 7977 ft 232 kts 85°
2026-04-17 12:00 -38.04619 146.64568 8114 ft 225 kts 83°
2026-04-17 12:00 -38.04490 146.66500 8410 ft 214 kts 87°
2026-04-17 12:01 -38.04494 146.68410 8279 ft 225 kts 96°
2026-04-17 12:01 -38.04768 146.70393 8051 ft 232 kts 103°
2026-04-17 12:01 -38.05172 146.72365 7863 ft 235 kts 105°
2026-04-17 12:01 -38.05581 146.74392 7355 ft 242 kts 105°
2026-04-17 12:02 -38.06029 146.76533 6273 ft 260 kts 104°
2026-04-17 12:02 -38.06454 146.78715 5895 ft 246 kts 104°
2026-04-17 12:02 -38.06820 146.80749 5135 ft 228 kts 101°
2026-04-17 12:02 -38.07085 146.82591 4350 ft 206 kts 100°
2026-04-17 12:03 -38.07352 146.84429 3211 ft 218 kts 101°
2026-04-17 12:03 -38.07653 146.86344 2153 ft 221 kts 101°
2026-04-17 12:03 -38.07896 146.87890 1555 ft 140 kts 103°
2026-04-17 12:03 -38.08053 146.88969 1120 ft 115 kts 101°
2026-04-17 12:04 -38.08176 146.89906 931 ft 104 kts 101°
2026-04-17 12:04 -38.08291 146.90816 818 ft 104 kts 101°
2026-04-17 12:04 -38.08423 146.91728 683 ft 105 kts 101°
2026-04-17 12:04 -38.08547 146.92606 570 ft 100 kts 101°
2026-04-17 12:05 -38.08668 146.93489 441 ft 97 kts 100°
2026-04-17 12:05 -38.08776 146.94266 304 ft 84 kts 102°
2026-04-17 12:05 -38.08851 146.94776 249 ft 91 kts 99°
2026-04-17 12:05 -38.08993 146.95860 101 ft 93 kts 100°
2026-04-17 12:06 -38.09083 146.96563 74 ft 67 kts 102°
2026-04-17 12:06 -38.09117 146.96836 78 ft 21 kts 96°
2026-04-17 12:06 -38.09141 146.96954 82 ft 22 kts 102°
2026-04-17 12:06 -38.09205 146.97074 82 ft 11 kts 195°
2026-04-17 12:07 -38.09249 146.97060 81 ft 9 kts 190°
2026-04-17 12:07 -38.09265 146.97056 81 ft 0 kts 181°